Regional Weather Roundup
Issued by NWS

Home | Current Version | Previous Version | Graphics & Text | Print | Product List | Glossary On
Versions: 1 2 3 4 5 6 7 8 9 10 11 12 13 14 15 16 17 18 19 20 21 22 23 24 25 26 27 28 29 30 31 32 33 34 35 36 37 38 39 40 41 42 43 44 45 46 47 48 49 50
000
ASUS45 KTFX 280310
RWRMT
MONTANA REGIONAL WEATHER ROUNDUP
NATIONAL WEATHER SERVICE GREAT FALLS MT
900 PM MDT THU AUG 27 2015

NOTE: "FAIR" INDICATES FEW OR NO CLOUDS BELOW 12000 FEET WITH NO
SIGNIFICANT WEATHER AND/OR OBSTRUCTIONS TO VISIBILITY.

MTZ001>007-043-280400-
WEST OF THE DIVIDE

CITY           SKY/WX    TMP DP  RH WIND       PRES   REMARKS
KALISPELL      CLOUDY    74  40  29 W5        29.98R SMOKE
MISSOULA       CLOUDY    75  38  26 CALM      30.03R HAZE
BUTTE          CLOUDY    71  40  32 S23G29    30.22R
MULLAN PASS    PTCLDY    63  36  36 VRB6      30.22R
DEER LODGE       N/A     64  43  45 CALM      30.16R
EUREKA           N/A     73  39  29 CALM      29.97R
HAMILTON         N/A     70  46  43 E7        30.06R
LIBBY            N/A     72  41  33 CALM      29.98R
$$

MTZ008-052>055-280400-
SOUTHWEST MONTANA

CITY           SKY/WX    TMP DP  RH WIND       PRES   REMARKS
BOZEMAN        PTCLDY    66  48  52 SE16      30.12R
DILLON         CLOUDY    67  44  43 SE9       30.13R
W YELLOWSTONE  CLOUDY    57  45  62 SE6       30.30F
$$

MTZ009-010-012-014-046-048-049-054-280400-
EAST SLOPES AND CENTRAL MONTANA

CITY           SKY/WX    TMP DP  RH WIND       PRES   REMARKS
CUT BANK       CLOUDY    72  37  28 W12       29.99R HAZE
GREAT FALLS    CLOUDY    74  37  26 SW14      29.98R HAZE
MALMSTROM AFB  CLOUDY    80  38  22 NW5       29.97R HAZE
HELENA         CLOUDY    79  39  23 SW10      30.05R
CONRAD           N/A     65  50  58 W3        30.02R
$$

MTZ011-013-016-021-045-047-050-051-280400-
NORTH CENTRAL MONTANA

CITY           SKY/WX    TMP DP  RH WIND       PRES   REMARKS
HAVRE          PTCLDY    68  46  45 S9        29.89R
LEWISTOWN      CLOUDY    65  51  60 E6        30.04R
N BAR RANCH      N/A     68  48  49 SW8       30.08R
CHINOOK          N/A     72  48  43 CALM      29.89R
FORT BENTON      N/A     81  39  22 CALM      29.94R
$$

MTZ017>020-022>027-061-062-280400-
NORTHEAST MONTANA

CITY           SKY/WX    TMP DP  RH WIND       PRES   REMARKS
GLASGOW        PTCLDY    75  55  49 CALM      29.87R
JORDAN           N/A     72  47  40 NW8       29.91R
SIDNEY         PTCLDY    70  63  78 CALM      29.88S
WOLF POINT     MOCLDY    75  59  57 CALM      29.85S
PLENTYWOOD       N/A     75  55  50 SE5       29.86R
POPLAR           N/A     75  57  53 E7        29.86S
$$

MTZ028>42-056>058-280400-
SOUTHCENTRAL AND SOUTHEAST MONTANA

CITY           SKY/WX    TMP DP  RH WIND       PRES   REMARKS
BAKER          CLOUDY    69  58  67 SE3       29.97R
BILLINGS       CLOUDY    73  44  35 W16       30.06R
LIVINGSTON     RAIN      72  42  34 MISG      30.13F
MILES CITY     MOCLDY    81  45  28 CALM      29.92R
FORSYTH          N/A     82  46  28 SW5       29.94R
LAUREL           N/A     70  43  37 SW13      30.05R
$$

REGIONAL REPORTS...DAKOTAS

CITY           SKY/WX    TMP DP  RH WIND       PRES   REMARKS
WILLISTON      PTCLDY    74  65  73 CALM      29.88S
MINOT            N/A     70  63  78 SE3       29.87R
DICKINSON      MOCLDY    69  57  65 S9        29.92R
CROSBY           N/A     72  64  78 S16       29.84F
BISMARCK       PTCLDY    69  61  75 S6        29.92R
GRAND FORKS    PTCLDY    67  63  87 S5        29.88F
FARGO          PTCLDY    71  66  84 SE7       29.91R
BUFFALO SD       N/A     70  56  61 W6        29.91R
RAPID CITY     CLEAR     63  60  90 CALM      30.03R
$$

REGIONAL REPORTS...WYOMING/IDAHO/WASHINGTON

CITY           SKY/WX    TMP DP  RH WIND       PRES   REMARKS
GILLETTE       MOCLDY    73  48  41 NW12      30.07R
SHERIDAN       CLOUDY    68  51  54 SW5       30.08R
BUFFALO WY     CLOUDY    73  42  32 NW9       30.15R
CODY           CLOUDY    66  45  45 SW10G18   30.19S
YELLOWSTONE LA   N/A     47  45  93 CALM      30.43S
IDAHO FALLS    CLEAR     71  50  47 SE6       30.13R
SALMON         CLOUDY    77  39  25 N8        30.04R
BOISE          PTCLDY    82  38  20 N5        30.00S
SPOKANE        PTCLDY    79  39  23 S6        29.99R
$$

REGIONAL REPORTS...ALBERTA

CITY           SKY/WX    TMP DP  RH WIND       PRES   REMARKS
EDMONTON       CLEAR     68  50  52 S5        29.77F
CALGARY        MOCLDY    66  50  55 SW5       29.89R SMOKE
LETHBRIDGE     MOCLDY    68  43  40 SW10      29.90R SMOKE
MEDICINE HAT   MOCLDY    70  54  56 SE3       29.84R SMOKE
WATERTON GATE    N/A     66  37  34 SW7G20      N/A
ONEFOUR          N/A     72  34  25 W2          N/A
$$

REGIONAL REPORTS...SASKATCHEWAN

CITY           SKY/WX    TMP DP  RH WIND       PRES   REMARKS
SWIFT CURRENT  CLEAR     70  55  60 W5        29.87R
REGINA         PTCLDY    72  61  68 NE8       29.78S
SASKATOON      CLOUDY    61  57  88 W3        29.82S
CYPRESS HILLS    N/A     64  41  42 NW2         N/A
VAL MARIE        N/A     61  50  67 S6          N/A
ROCKGLEN         N/A     66  55  68 SW9         N/A
ASSINIBOIA       N/A     68  55  64 S5          N/A
$$


USA.gov is the U.S. government's official web portal to all federal, state and local government web resources and services.